#timestamp,LO_Frequency,Hit,StdDev 
1530511215.5,286046999.1,N
1530511235.3,286046998.8,N
1530511255.1,286046996.9,N
1530511275.9,286046997.6,N
1530511295.7,286046997.0,N
1530511315.6,286046999.2,N
1530511335.4,286046998.2,N
1530511355.2,286047001.2,N
1530511375.1,286047000.7,N
1530511376.0,286047000.7,N
1530511395.8,286047001.0,N
1530511415.6,286047000.2,N
1530511435.5,286047000.8,N
1530511455.3,286046998.5,N
1530511475.2,286046998.7,N
1530511495.0,286046998.3,N
1530511495.9,286046998.3,N
1530511515.7,286046998.9,N
1530511535.6,286046996.5,N
1530511555.4,286046999.2,N
1530511575.5,286046999.5,N
1530511595.3,286046999.4,N
1530511615.2,286046999.0,N
1530511635.0,286046998.7,N
1530511635.9,286046998.7,N
1530511655.8,286046998.8,N
1530511675.6,286047001.0,N
1530511695.4,286047000.0,N
1530511715.3,286047002.1,N
1530511735.1,286047000.0,N
1530511755.8,286046998.7,N
1530511775.7,286047000.7,N
1530511795.5,286046998.1,N
1530511815.4,286046999.9,N
1530511835.2,286047001.2,N
1530511855.0,286046998.7,N
1530511855.9,286046998.7,N
1530511875.8,286046999.0,N
1530511895.6,286046998.8,N
1530511915.5,286047000.7,N
1530511935.3,286047000.0,N
1530511955.1,286047000.6,N
1530511975.9,286047001.2,N
1530511995.7,286047000.9,N
1530512015.5,286047002.7,N
1530512035.4,286046999.8,N
1530512055.2,286046999.7,N
1530512075.1,286047000.3,N
1530512076.0,286047000.3,N
1530512095.8,286047000.4,N
1530512115.6,286047000.5,N
1530512135.5,286047000.7,N
1530512155.3,286047001.0,N
1530512175.1,286047000.0,N
1530512195.9,286046998.6,N
1530512215.7,286046998.9,N
1530512235.6,286046999.5,N
1530512255.4,286046998.4,N
1530512275.6,286046998.4,N
1530512295.4,286046999.0,N
1530512315.2,286046998.5,N
1530512335.1,286047000.2,N
1530512336.0,286047000.2,N
1530512355.8,286047002.7,N
1530512375.7,286046999.7,N
1530512395.5,286047000.1,N
1530512415.3,286047002.2,N
1530512435.2,286047000.1,N
1530512455.9,286046999.8,N
1530512475.7,286047000.0,N
1530512495.6,286046998.4,N
1530512515.4,286047001.2,N
1530512535.2,286046998.3,N
1530512555.1,286047000.2,N
1530512556.0,286047000.2,N
1530512575.8,286046999.9,N
1530512595.7,286047002.4,N
1530512615.5,286047002.1,N
1530512635.3,286047002.1,N
1530512655.2,286047001.8,N
1530512675.0,286047003.1,N
1530512675.9,286047003.1,N
1530512695.8,286047003.7,N
1530512715.6,286047001.9,N
1530512735.4,286047002.5,N
1530512755.3,286047001.0,N
1530512775.1,286047001.2,N
1530512795.8,286047000.7,N
1530512815.6,286047000.4,N
1530512835.4,286047000.7,N
1530512855.2,286047000.5,N
1530512875.1,286047000.2,N
1530512876.0,286047000.2,N
1530512895.8,286046999.8,N
1530512915.7,286046999.8,N
1530512935.5,286047000.2,N
1530512955.3,286047002.5,N
1530512975.2,286047002.3,N
1530512995.9,286046999.8,N
1530513015.7,286047000.0,N
1530513035.6,286047000.1,N
1530513055.4,286047001.6,N
1530513075.2,286047002.3,N
1530513095.1,286047002.2,N
1530513096.0,286047002.2,N
1530513115.8,286047002.5,N
1530513135.7,286047004.3,Y
1530513155.5,286047002.5,P
1530513175.3,286047002.6,P
1530513195.2,286047001.3,N
1530513215.0,286047003.9,Y
1530513215.9,286047003.9,P
1530513235.8,286047001.3,N
1530513255.6,286047001.8,N
1530513275.4,286047000.2,N
1530513295.3,286047002.6,N
1530513315.1,286047002.4,N
1530513335.8,286047000.4,N
1530513355.7,286047001.2,N
1530513375.5,286046998.6,N
1530513395.4,286046998.7,N
1530513415.2,286046999.3,N
1530513435.0,286046999.3,N
1530513435.9,286046999.3,N
1530513455.8,286046996.7,N
1530513475.6,286046998.5,N
1530513495.4,286047000.2,N
1530513515.3,286047000.9,N
1530513535.1,286046998.5,N
1530513555.9,286046998.6,N
1530513575.7,286046998.7,N
1530513595.5,286046996.5,N
1530513615.4,286046996.5,N
1530513635.2,286046997.0,N
1530513655.1,286046996.9,N
1530513675.9,286046999.1,N
1530513695.7,286046998.5,N
1530513715.6,286046998.5,N
1530513735.4,286046998.9,N
1530513755.2,286046998.7,N
1530513775.1,286046998.6,N
1530513776.0,286046998.6,N
1530513795.8,286046998.3,N
1530513815.6,286046999.1,N
1530513835.5,286046997.0,N
1530513855.1,286046996.7,N
1530513875.1,286046998.7,N
1530513895.8,286046999.2,N
1530513915.7,286046996.9,N
1530513935.5,286046997.7,N
1530513955.4,286046997.8,N
1530513975.2,286046996.9,N
1530513995.0,286047001.2,N
1530513995.9,286047001.2,N
1530514015.8,286046998.6,N
1530514035.6,286046999.1,N
1530514055.4,286046996.6,N
1530514075.3,286046996.8,N
1530514095.1,286046997.1,N
1530514115.9,286046997.7,N
1530514135.7,286046997.3,N
1530514155.5,286046995.1,Y
1530514175.4,286046999.5,P
1530514195.2,286046996.9,P
1530514215.0,286046996.5,P
1530514216.0,286046996.5,Y
1530514235.8,286046998.2,P
1530514255.6,286047001.1,P
1530514275.5,286047000.4,N
1530514295.2,286046999.8,N
1530514315.9,286046999.7,N
1530514335.7,286047000.2,N
1530514355.6,286046999.9,N
1530514375.4,286047000.1,N
1530514395.3,286047000.0,N
1530514415.1,286046998.3,N
1530514416.0,286046998.3,N
1530514435.8,286047001.1,N
1530514455.7,286047002.0,N
1530514475.5,286047002.1,N
1530514495.3,286047001.6,N
1530514515.2,286046999.8,N
1530514535.0,286047000.6,N
1530514535.9,286047000.6,N
1530514555.8,286046998.6,N
1530514575.6,286046998.6,N
1530514595.4,286046998.7,N
1530514615.3,286046997.2,N
1530514635.2,286046996.5,N
1530514655.0,286046997.2,N
1530514655.9,286046997.2,N
1530514675.8,286046997.0,N
1530514695.6,286046999.4,N
1530514715.5,286046999.1,N
1530514735.3,286046998.6,N
1530514755.1,286047001.0,N
1530514775.9,286046998.7,N
1530514795.7,286046999.2,N
